Tracking 28091 objects as of 30-Sep-2023
HD Live streaming from Space Station
objects crossing your sky now

STARLINK-6202

Track STARLINK-6202 now!
10-day predictions
STARLINK-6202 is classified as:


NORAD ID: 56896
Int'l Code: 2023-083W
Perigee: 565.4 km
Apogee: 566.9 km
Inclination: 43.0 °
Period: 95.8 minutes
Semi major axis: 6937 km
RCS: Unknown
Launch date: June 12, 2023
Source: United States (US)
Launch site: AIR FORCE EASTERN TEST RANGE (AFETR)
Your satellite tracking list
Your tracking list is empty




NASA's NSSDC Master Catalog

Two Line Element Set (TLE):
1 56896U 23083W   23273.08636466  .00003235  00000-0  25434-3 0  9990
2 56896  42.9999 246.1902 0001078 267.5849  92.4870 15.02547798 17667
Source of the keplerian elements: AFSPC